[[{"header":{"parameterUnit":"m.s-1","parameterCategory":1,"la1":30.2991,"la2":30.254,"lo1":-89.0895,"lo2":-89.0444,"dy":0.0017,"dx":0.0017,"nx":28,"ny":28,"refTime":"2024-09-04T03:00:00:Z","depth":0,"parameterNumber":2,"parameterNumberName":"U-component_of_WINDS"},"data":[0,0,0,0,0,0,0,0,0,0,0,0,0,0,0,0,0,0,0,0,0,0,0,0,0,0,0,0,0,0,0,0,0,0,0,0,0,0,0,0,0,0,0,0,0,0,0,0,0,0,0,0,0,0,0,0,0,0,-10.3268,-10.3269,0,-10.3268,-10.3268,-10.3268,-10.298,-10.2973,-10.2965,-10.2958,-10.2956,-10.2963,-10.2969,0,0,0,0,0,0,0,0,0,0,0,0,0,-10.3019,-10.3025,-10.3268,-10.3269,-10.3269,-10.3268,-10.3268,-10.3268,-10.2982,-10.2973,-10.2963,-10.2955,-10.2954,-10.2962,-10.297,0,0,0,0,0,0,0,0,0,0,0,0,0,-10.3084,-10.3027,-10.3268,-10.3126,-10.3113,-10.3268,-10.3268,-10.3268,-10.2984,-10.2972,-10.2961,-10.2951,-10.2951,-10.2961,-10.2971,-10.3262,0,0,-10.3003,-10.3008,0,0,0,0,0,0,0,0,-10.308,-10.3093,-10.3147,-10.3136,-10.3122,-10.3112,-10.3178,-10.3266,-10.2987,-10.3033,-10.2958,-10.2945,-10.3017,-10.3021,-10.3046,-10.3261,-10.3261,-10.3004,-10.301,-10.3015,-10.3018,0,0,0,0,0,0,0,-10.3076,-10.3092,-10.3268,-10.3148,-10.3133,-10.306,-10.3057,-10.3193,-10.3088,-10.3028,-10.3007,-10.3011,-10.3008,-10.3037,-10.3044,-10.3261,-10.3004,-10.3013,-10.3019,-10.3023,-10.3712,-10.3723,0,0,0,0,0,0,-10.3092,-10.309,-10.3268,-10.3268,-10.3073,-10.3074,-10.307,-10.3127,-10.3086,-10.3069,-10.3021,-10.2998,-10.3024,-10.3032,-10.3043,-10.3377,-10.3015,-10.3024,-10.303,-10.37,-10.3715,-10.3728,0,0,0,0,0,0,-10.3087,-10.311,-10.3268,-10.3173,-10.3188,-10.3091,-10.3156,-10.3133,-10.3161,-10.308,-10.306,-10.3069,-10.3016,-10.3028,-10.3209,-10.3373,-10.3029,-10.3039,-10.3686,-10.3705,-10.3721,-10.4051,0,0,0,0,0,0,-10.3082,-10.3111,-10.3221,-10.3178,-10.3194,-10.3436,-10.3166,-10.3141,-10.318,-10.315,-10.3121,-10.3105,-10.3008,-10.3195,-10.3219,-10.3381,-10.3047,-10.3671,-10.3694,-10.3715,-10.4025,-10.4078,-10.4124,0,0,0,0,0,-10.3074,-10.3314,-10.3228,-10.3251,-10.333,-10.3446,-10.3455,-10.3339,-10.3195,-10.3303,-10.3251,-10.3106,-10.3352,-10.3216,-10.3241,-10.3409,-10.366,-10.3687,-10.3714,-10.4003,-10.4068,-10.4123,0,0,0,0,0,0,-10.3379,-10.3306,-10.321,-10.3444,-10.3454,-10.3398,-10.3532,-10.3412,-10.3462,-10.3432,-10.3285,-10.3281,-10.3484,-10.3464,-10.3314,-10.3686,-10.348,-10.3513,-10.3691,-10.3752,-10.3801,-10.38,-10.3055,0,0,0,0,0,-10.3474,-10.3575,-10.3505,-10.3719,-10.3729,-10.3631,-10.3677,-10.3586,-10.359,-10.3592,-10.3553,-10.3562,-10.364,-10.3695,-10.3764,-10.4022,-10.401,-10.4149,-10.4199,-10.424,-10.427,-10.4402,-10.4462,-10.3817,-10.3816,-10.3816,0,0,-10.367,-10.3643,-10.3716,-10.3779,-10.3776,-10.3883,-10.3636,-10.376,-10.3837,-10.3611,-10.3778,-10.3751,-10.3751,-10.3971,-10.4066,-10.3961,-10.4445,-10.4274,-10.4307,-10.4315,-10.4436,-10.4497,-10.4552,-10.3835,-10.3832,-10.3829,0,0,-10.4082,-10.4073,-10.4248,-10.425,-10.4248,-10.4181,-10.4224,-10.4186,-10.4159,-10.4325,-10.4157,-10.4246,-10.4386,-10.4392,-10.4413,-10.4827,-10.4694,-10.4853,-10.511,-10.5241,-10.5292,-10.5336,-10.5481,-10.5535,-10.4884,-10.4885,-10.4885,0,-10.4326,-10.4481,-10.4353,-10.4488,-10.4519,-10.432,-10.4495,-10.4503,-10.4525,-10.455,-10.4432,-10.4602,-10.4588,-10.4805,-10.4906,-10.4931,-10.4973,-10.4855,-10.5295,-10.5338,-10.5378,-10.5514,-10.5569,-10.4904,-10.4902,-10.49,-10.4898,0,-10.4779,-10.4889,-10.5031,-10.5056,-10.5104,-10.5259,-10.5153,-10.5216,-10.5122,-10.5068,-10.5238,-10.5215,-10.5273,-10.5319,-10.5228,-10.5524,-10.5458,-10.5321,-10.511,-10.546,-10.5586,-10.5638,-10.4931,-10.4924,-10.4919,-10.4914,0,0,-10.5382,-10.5334,-10.5388,-10.5396,-10.5379,-10.5461,-10.5606,-10.5663,-10.572,-10.5742,-10.5857,-10.598,-10.5852,-10.5877,-10.5785,-10.5901,-10.6226,-10.5747,-10.5745,-10.5835,-10.6548,-10.6649,-10.6712,-10.6139,-10.6149,-10.6156,-10.6547,0,-10.5779,-10.6023,-10.5912,-10.6168,-10.6266,-10.6079,-10.6204,-10.6207,-10.616,-10.6236,-10.6183,-10.6271,-10.6097,-10.611,-10.6216,-10.6165,-10.6367,-10.6135,-10.6244,-10.6249,-10.6247,-10.6778,-10.6886,-10.7255,-10.6595,-10.6603,-10.6609,0,-10.6273,-10.6315,-10.6581,-10.6544,-10.6581,-10.6697,-10.6739,-10.6815,-10.6814,-10.6771,-10.6799,-10.6681,-10.6818,-10.6612,-10.6799,-10.6644,-10.6682,-10.6664,-10.6675,-10.6678,-10.6449,-10.6793,-10.737,-10.7425,-10.6686,-10.668,-10.6674,0,-10.6683,-10.6806,-10.6979,-10.6992,-10.6955,-10.704,-10.7028,-10.7015,-10.7057,-10.7094,-10.7119,-10.7173,-10.7202,-10.7247,-10.7145,-10.7005,-10.7346,-10.7131,-10.7312,-10.7315,-10.739,-10.7386,-10.7979,-10.7421,-10.742,-10.7419,-10.7418,0,-10.7135,-10.7305,-10.7162,-10.7269,-10.7453,-10.7323,-10.7508,-10.7476,-10.7467,-10.7563,-10.7405,-10.7499,-10.7361,-10.7441,-10.7363,-10.7528,-10.7544,-10.7511,-10.7488,-10.7524,-10.7528,-10.7544,-10.7515,-10.7434,-10.7431,-10.7428,-10.7425,0,-10.7622,-10.7534,-10.7711,-10.7661,-10.7652,-10.779,-10.7746,-10.7842,-10.7784,-10.7908,-10.7929,-10.7839,-10.7925,-10.7829,-10.7908,-10.7855,-10.8078,-10.8018,-10.8078,-10.806,-10.8245,-10.8228,-10.8867,-10.8943,-10.8341,-10.8347,-10.8351,0,-10.7915,-10.8041,-10.8004,-10.8057,-10.8055,-10.8143,-10.8183,-10.8061,-10.811,-10.8118,-10.8213,-10.8286,-10.8336,-10.8483,-10.8423,-10.8483,-10.8421,-10.8641,-10.8429,-10.846,-10.842,-10.8413,-10.8423,-10.8684,-10.8691,-10.8697,-10.8701,0,-10.8443,-10.8393,-10.8458,-10.8509,-10.8562,-10.8596,-10.8617,-10.867,-10.8542,-10.8605,-10.8691,-10.8731,-10.8811,-10.8884,-10.8926,-10.8912,-10.8787,-10.8769,-10.8814,-10.885,-10.8878,-10.8862,-10.8193,-10.8754,-10.8749,-10.8745,-10.8742,-10.874,-10.8839,-10.8941,-10.8931,-10.9008,-10.9011,-10.9035,-10.9122,-10.9075,-10.9144,-10.9199,-10.9123,-10.9229,-10.9223,-10.9266,-10.9268,-10.9348,-10.9254,-10.932,-10.9335,-10.9353,-10.9379,-10.8869,-10.9356,-10.9355,-10.9353,-10.9352,-10.9351,0,-10.9356,-10.934,-10.9412,-10.9447,-10.9508,-10.9384,-10.9401,-10.946,-10.9555,-10.956,-10.9614,-10.9712,-10.9782,-10.9729,-10.9788,-10.9863,-10.9806,-10.9882,-10.9873,-10.9872,-10.9461,-10.9416,-10.9926,-10.9926,-10.9926,-10.9926,-10.9926,-10.9926,-10.9631,-10.9796,-10.9745,-10.9909,-10.9891,-10.9993,-11.0013,-11.0034,-11.0037,-11.0153,-11.0211,-11.0176,-11.0157,-11.0213,-11.0272,-11.0254,-11.0282,-11.0378,-11.034,-10.9958,-10.9901,-10.9847,-10.9802,-11.0386,-11.0387,-11.0742,-11.0746,-11.0748]},{"header":{"parameterUnit":"m.s-1","parameterCategory":1,"la1":30.2991,"la2":30.254,"lo1":-89.0895,"lo2":-89.0444,"dy":0.0017,"dx":0.0017,"nx":28,"ny":28,"refTime":"2024-09-04T03:00:00:Z","depth":0,"parameterNumber":3,"parameterNumberName":"V-component_of_WINDS"},"data":[0,0,0,0,0,0,0,0,0,0,0,0,0,0,0,0,0,0,0,0,0,0,0,0,0,0,0,0,0,0,0,0,0,0,0,0,0,0,0,0,0,0,0,0,0,0,0,0,0,0,0,0,0,0,0,0,0,0,-3.1176,-3.1175,0,-3.115,-3.1149,-3.1149,-3.1161,-3.1162,-3.1163,-3.1163,-3.113,-3.1129,-3.1127,0,0,0,0,0,0,0,0,0,0,0,0,0,-3.1232,-3.1231,-3.1176,-3.1175,-3.1175,-3.115,-3.1149,-3.1149,-3.1161,-3.1162,-3.1163,-3.1164,-3.1131,-3.1129,-3.1127,0,0,0,0,0,0,0,0,0,0,0,0,0,-3.1207,-3.1231,-3.1176,-3.1178,-3.1178,-3.115,-3.1149,-3.1149,-3.1161,-3.1162,-3.1163,-3.1164,-3.1131,-3.1129,-3.1127,-3.1092,0,0,-3.112,-3.1119,0,0,0,0,0,0,0,0,-3.1208,-3.1205,-3.1178,-3.1178,-3.1178,-3.116,-3.1157,-3.1129,-3.1161,-3.1167,-3.1163,-3.1165,-3.1139,-3.1136,-3.1129,-3.109,-3.1089,-3.112,-3.1118,-3.1117,-3.1117,0,0,0,0,0,0,0,-3.121,-3.1206,-3.1165,-3.1178,-3.1178,-3.1179,-3.1177,-3.1152,-3.1147,-3.1167,-3.1168,-3.1165,-3.1139,-3.1131,-3.1128,-3.1088,-3.112,-3.1118,-3.1116,-3.1115,-3.1021,-3.102,0,0,0,0,0,0,-3.1212,-3.1207,-3.1166,-3.1164,-3.1196,-3.1178,-3.1175,-3.1165,-3.1148,-3.1146,-3.1164,-3.1166,-3.1134,-3.1131,-3.1127,-3.1084,-3.1117,-3.1115,-3.1114,-3.1022,-3.1021,-3.102,0,0,0,0,0,0,-3.1214,-3.1209,-3.1167,-3.1186,-3.1181,-3.1176,-3.1164,-3.1164,-3.1155,-3.1146,-3.1144,-3.1157,-3.1135,-3.113,-3.1101,-3.1083,-3.1114,-3.1112,-3.1024,-3.1022,-3.102,-3.0999,0,0,0,0,0,0,-3.1215,-3.1209,-3.1196,-3.1186,-3.118,-3.1143,-3.1163,-3.1162,-3.1152,-3.1154,-3.1138,-3.1137,-3.1135,-3.1105,-3.1099,-3.1081,-3.111,-3.1025,-3.1023,-3.1021,-3.1002,-3.0997,-3.0994,0,0,0,0,0,-3.1217,-3.119,-3.1195,-3.119,-3.1164,-3.1142,-3.1138,-3.1139,-3.1151,-3.1137,-3.1132,-3.1137,-3.1087,-3.1101,-3.1095,-3.1076,-3.1026,-3.1024,-3.1021,-3.1003,-3.0998,-3.0994,0,0,0,0,0,0,-3.1195,-3.1188,-3.1194,-3.1163,-3.1154,-3.1144,-3.1126,-3.1133,-3.1117,-3.1119,-3.1119,-3.1116,-3.1086,-3.1079,-3.1094,-3.1042,-3.1058,-3.1054,-3.1047,-3.1042,-3.1038,-3.1038,-3.1108,0,0,0,0,0,-3.1187,-3.1171,-3.1166,-3.1138,-3.1134,-3.1131,-3.1121,-3.1124,-3.1112,-3.1107,-3.1099,-3.1086,-3.1068,-3.1055,-3.1037,-3.1003,-3.0998,-3.0986,-3.0982,-3.0979,-3.0974,-3.0955,-3.0949,-3.1011,-3.1011,-3.1012,0,0,-3.1169,-3.1164,-3.1153,-3.1134,-3.1126,-3.1108,-3.1127,-3.1107,-3.1093,-3.1103,-3.1075,-3.107,-3.1056,-3.1024,-3.1009,-3.1017,-3.0957,-3.0976,-3.0973,-3.097,-3.0952,-3.0946,-3.0941,-3.101,-3.101,-3.101,0,0,-3.1126,-3.1122,-3.1099,-3.1092,-3.1082,-3.1081,-3.1076,-3.1066,-3.1064,-3.1037,-3.1045,-3.1028,-3.0996,-3.0986,-3.0976,-3.0935,-3.0939,-3.0929,-3.0906,-3.0888,-3.0883,-3.0878,-3.0861,-3.0856,-3.0926,-3.0926,-3.0926,0,-3.1104,-3.1079,-3.1085,-3.1065,-3.1056,-3.1069,-3.1045,-3.1038,-3.1021,-3.1014,-3.1024,-3.0986,-3.0977,-3.0943,-3.0933,-3.0926,-3.0919,-3.0929,-3.0883,-3.0879,-3.0875,-3.0859,-3.0853,-3.0924,-3.0924,-3.0925,-3.0925,0,-3.1051,-3.1034,-3.1016,-3.1003,-3.0993,-3.0971,-3.0973,-3.0962,-3.0966,-3.0964,-3.0937,-3.0929,-3.091,-3.0903,-3.0905,-3.0869,-3.0874,-3.0884,-3.0899,-3.0867,-3.0852,-3.0846,-3.0922,-3.0923,-3.0923,-3.0924,0,0,-3.0988,-3.0983,-3.0976,-3.097,-3.0962,-3.0948,-3.0927,-3.0912,-3.0901,-3.0891,-3.0872,-3.0847,-3.0858,-3.0847,-3.0849,-3.0833,-3.08,-3.0845,-3.0845,-3.0835,-3.0758,-3.0747,-3.074,-3.0805,-3.0804,-3.0803,-3.0758,0,-3.0942,-3.0907,-3.0915,-3.0879,-3.0863,-3.0878,-3.0859,-3.0852,-3.0851,-3.0836,-3.0835,-3.0816,-3.0832,-3.0826,-3.0811,-3.0807,-3.0783,-3.0811,-3.0784,-3.0783,-3.0783,-3.0733,-3.0721,-3.0679,-3.0752,-3.0751,-3.0751,0,-3.0883,-3.0874,-3.0838,-3.0834,-3.0828,-3.0811,-3.0798,-3.0785,-3.0777,-3.0778,-3.0768,-3.0775,-3.0753,-3.0773,-3.0743,-3.0761,-3.0752,-3.0749,-3.0747,-3.0741,-3.0762,-3.0722,-3.0666,-3.0658,-3.0742,-3.0743,-3.0743,0,-3.0837,-3.0816,-3.0792,-3.0787,-3.0783,-3.0771,-3.0769,-3.0763,-3.0753,-3.0743,-3.0736,-3.0723,-3.0714,-3.0702,-3.0705,-3.0719,-3.0673,-3.0693,-3.067,-3.067,-3.0655,-3.0655,-3.0593,-3.0656,-3.0656,-3.0656,-3.0656,0,-3.0783,-3.0759,-3.0771,-3.0755,-3.073,-3.074,-3.0714,-3.0713,-3.0709,-3.0692,-3.0705,-3.0689,-3.0695,-3.068,-3.0682,-3.0656,-3.0652,-3.0651,-3.065,-3.0647,-3.0647,-3.0637,-3.0638,-3.0655,-3.0655,-3.0655,-3.0656,0,-3.0724,-3.0732,-3.0706,-3.0706,-3.0706,-3.0687,-3.0687,-3.0672,-3.0675,-3.0654,-3.065,-3.0653,-3.0636,-3.0639,-3.0619,-3.062,-3.0587,-3.0592,-3.0589,-3.0589,-3.0565,-3.0566,-3.0491,-3.0481,-3.0554,-3.0553,-3.0553,0,-3.0686,-3.0669,-3.0669,-3.0661,-3.0658,-3.0644,-3.0636,-3.0647,-3.0638,-3.063,-3.0616,-3.0601,-3.0589,-3.0561,-3.056,-3.0545,-3.0548,-3.0524,-3.0545,-3.0543,-3.0544,-3.0543,-3.0541,-3.0517,-3.0516,-3.0515,-3.0515,0,-3.0618,-3.0624,-3.0613,-3.0604,-3.0595,-3.0588,-3.0581,-3.0573,-3.0584,-3.0573,-3.0557,-3.0548,-3.0531,-3.0515,-3.0502,-3.0498,-3.0507,-3.0509,-3.0503,-3.0496,-3.0494,-3.0492,-3.0573,-3.0509,-3.051,-3.051,-3.051,-3.0511,-3.0566,-3.0552,-3.055,-3.0538,-3.0536,-3.0531,-3.0518,-3.0521,-3.0509,-3.0496,-3.0504,-3.0485,-3.0481,-3.0465,-3.0461,-3.0446,-3.0454,-3.0445,-3.0442,-3.0439,-3.0435,-3.0501,-3.0444,-3.0444,-3.0444,-3.0444,-3.0444,0,-3.0495,-3.0496,-3.0486,-3.0479,-3.0469,-3.0485,-3.048,-3.047,-3.0454,-3.0451,-3.044,-3.0423,-3.0409,-3.041,-3.0397,-3.0384,-3.0388,-3.038,-3.0378,-3.0377,-3.0429,-3.0434,-3.0377,-3.0377,-3.0377,-3.0377,-3.0377,-3.0377,-3.0456,-3.0433,-3.0439,-3.0416,-3.0417,-3.0401,-3.0397,-3.0392,-3.039,-3.037,-3.036,-3.0363,-3.036,-3.0348,-3.0336,-3.0336,-3.0329,-3.0319,-3.032,-3.0367,-3.0374,-3.038,-3.0385,-3.0318,-3.0318,-3.027,-3.0269,-3.0269]}]]